Location: Central Falls
(41.8900°N, 71.3929°W)
Time: 16:29:46
(UTC+00:00)

Vanguard 1 - Pass Details

Date: 08 December 2023
Orbit: 653 x 3826 km, 34.3° (Epoch: 24 February)

Event Time Altitude Azimuth Distance (km) Brightness Sun altitude
Rises 19:54:31 0° 205° (SSW) 4,528 15.0 10.9°
Reaches altitude 10° 19:57:30 10° 195° (SSW) 3,912 14.3 10.5°
Maximum altitude 20:06:47 32° 137° (SE) 3,517 13.0 9.3°
Drops below altitude 10° 20:21:25 10° 84° (E) 6,253 13.7 7.2°
Sets 20:27:50 0° 77° (ENE) 7,644 14.0 6.3°
